[Iaude] MPEC T63: 2023 TS1 [a=1.74,e=0.40,i=16.0,H=24.1]
    mpec at marsden.cfa.harvard.edu 
    mpec at marsden.cfa.harvard.edu
       
    Fri Oct  6 21:00:24 EDT 2023
    
    
  
M.P.E.C. 2023-T63                               Issued 2023 October 7, 00:59 UT
     The Minor Planet Electronic Circulars contain information on unusual
         minor planets, routine data on comets and natural satellites,
         and occasional editorial announcements.  They are published
    on behalf of Division F of the International Astronomical Union by the
          Minor Planet Center, Smithsonian Astrophysical Observatory,
                          Cambridge, MA 02138, U.S.A.
			  
             Prepared using the Tamkin Foundation Computer Network
                              MPC at CFA.HARVARD.EDU
            URL https://www.minorplanetcenter.net/    ISSN 1523-6714
                                    2023 TS1                                    
Observations:
     K23T01S*1C2023 10 05.32742601 25 00.451+08 03 10.30         19.29GVET063G96
     K23T01S 1C2023 10 05.33309801 24 59.900+08 04 16.46         19.16GVET063G96
     K23T01S 1C2023 10 05.33877201 24 59.350+08 05 22.31         19.36GVET063G96
     K23T01S 1C2023 10 05.34443701 24 58.799+08 06 28.30         19.90GVET063G96
     K23T01S  C2023 10 05.38377001 24 54.720+08 14 04.10         19.4 GVET063H01
     K23T01S  C2023 10 05.39200801 24 53.945+08 15 40.20         20.2 GVET063H01
     K23T01S  C2023 10 05.39731401 24 53.450+08 16 42.13         20.0 GVET063H01
     K23T01S  C2023 10 05.40427101 24 52.794+08 18 03.09         19.3 GVET063H01
     K23T01S KC2023 10 05.87369301 24 27.78 +09 50 26.9          19.1 GXET063958
     K23T01S KC2023 10 05.88070801 24 26.489+09 52 01.34         19.5 rZET063L34
     K23T01S KC2023 10 05.88087401 24 27.18 +09 51 54.1          18.8 GXET063958
     K23T01S KC2023 10 05.88805201 24 26.45 +09 53 21.7                XET063958
     K23T01S KC2023 10 05.90628 01 24 24.12 +09 57 02.1          19.6 GVET063104
     K23T01S KC2023 10 05.91935 01 24 22.93 +09 59 39.7                VET063104
     K23T01S KC2023 10 05.93242 01 24 21.70 +10 02 16.4          19.5 GVET063104
     K23T01S KB2023 10 05.94624501 24 21.19 +10 05 01.2          20.3 GVET063I93
     K23T01S KB2023 10 05.96897801 24 18.96 +10 09 36.0          19.3 GVET063I93
     K23T01S KB2023 10 05.99161101 24 16.81 +10 14 10.3          20.0 GVET063I93
     K23T01S KC2023 10 05.99923801 24 14.914+10 15 51.70         19.6 rZET063L34
     K23T01S KB2023 10 06.01708 01 24 13.87 +10 19 18.6          20.2 VZET063C95
     K23T01S KB2023 10 06.02843 01 24 12.75 +10 21 35.8          19.6 VZET063C95
     K23T01S 0B2023 10 06.03309901 24 11.027+10 24 14.34         19.8 VZET063M49
     K23T01S 0B2023 10 06.03882001 24 10.405+10 25 23.23         19.7 VZET063M49
     K23T01S KB2023 10 06.03958 01 24 11.64 +10 23 50.8          19.7 VZET063C95
     K23T01S 7C2023 10 06.05867901 24 10.345+10 27 50.85         20.0 GVET063Z84
     K23T01S 7C2023 10 06.06060601 24 10.138+10 28 14.14         19.6 GVET063Z84
     K23T01S KC2023 10 06.25274201 23 58.01 +11 07 11.2          20.1 VuET063H21
     K23T01S KC2023 10 06.25467101 23 57.81 +11 07 34.7          20.0 VuET063H21
     K23T01S KC2023 10 06.25659901 23 57.61 +11 07 58.2          20.0 VuET063H21
     K23T01S KC2023 10 06.25852801 23 57.41 +11 08 21.8          20.0 VuET063H21
     K23T01S KC2023 10 06.26180601 23 57.08 +11 09 02.0          20.2 VuET063H21
     K23T01S KB2023 10 06.90893 01 23 10.52 +13 22 58.3          19.2 GXET063M45
     K23T01S KB2023 10 06.91750 01 23 09.56 +13 24 47.2          19.4 GXET063M45
     K23T01S KB2023 10 06.92425 01 23 08.89 +13 26 12.1          19.5 GXET063M45
     K23T01S KB2023 10 06.97910901 23 04.614+13 37 39.03         19.8 GXET063B72
     K23T01S KB2023 10 06.98732301 23 03.744+13 39 23.12         19.4 GXET063B72
     K23T01S KB2023 10 06.99553001 23 02.891+13 41 05.77         19.3 GXET063B72
Observer details:
104 San Marcello Pistoiese.  Observers P. Bacci, M. Maestripieri.  Measurer P.
    Bacci.  0.60-m f/4.0 reflector + CCD.
958 Observatoire de Dax.  Observers P. Dupouy, J. B. de Vanssay.  Measurer P.
    Dupouy.  0.43-m f/2.7 Reflector + CCD.
B72 Soerth.  Observer B. Koch.  0.36-m f/7.6 reflector + CMO.
C95 SATINO Remote Observatory, Haute Provence.  Observers D. Husar, K. Meo.
    Measurer D. Husar.  0.30-m f/5.8 reflector + CMO.
G96 Mt. Lemmon Survey.  Observer G. J. Leonard.  Measurers E. C. Beshore, D.
    Fay, J. B. Fazekas, D. C. Fuls, A. R. Gibbs, A. D. Grauer, H. Groeller, J.
    K. Hogan, R. A. Kowalski, S. M. Larson, G. J. Leonard, D. Rankin, R. L.
    Seaman, F. C. Shelly, K. W. Wierzchos.  1.5-m reflector + 10K CCD.
H01 Magdalena Ridge Observatory, Socorro.  Observers W. H. Ryan, E. V. Ryan.
    Measurer W. H. Ryan.  2.4-m f/8.9 Ritchey-Chretien + CCD.
H21 Astronomical Research Observatory, Westfield.  Observer R. Holmes.
    Measurers T. Linder, R. Holmes, L. Horn.  0.76-m f/3.0 astrograph + CCD.
I93 St Pardon de Conques.  Observer F. Losse.  0.40-m f/3.7 reflector + CMO.
L34 Galhassin Robotic Telescope, Isnello.  Observer A. Nastasi.  0.40-m f/3.8
    400mm Reflector + CCD.
M45 Starhopper Observatory, Sfantu Gheorghe.  Observer F. Ursache.  0.41-m
    f/7.5 reflector + CMO.
M49 IAS Remote Observatory, Hakos.  Observers D. Husar, M. Junius.  Measurer
    D. Husar.  0.25-m f/4.5 reflector + CMO.
Z84 Calar Alto-Schmidt.  Observers F. Ocana, M. Micheli, R. Kresken, L.
    Conversi.  Measurers F. Ocana, M. Micheli.  0.8-m f/3 Schmidt + CCD.
Orbital elements:
2023 TS1                                                 Earth MOID = 0.0854 AU
Epoch 2023 Sept. 13.0 TT = JDT 2460200.5                Veres                   
M 337.75987              (2000.0)            P               Q                  
n   0.42796907     Peri.   30.95365     +0.72764612     -0.68325843             
a   1.7439250      Node    12.72263     +0.55932072     +0.53972752             
e   0.3980627      Incl.   16.00905     +0.39710383     +0.49178463             
P   2.30           H   24.10          G   0.15           U   9                  
Residuals in seconds of arc
231005 G96  0.0   0.1+    231005 104  0.2+  0.7+    231006 H21  0.1+  0.6+
231005 G96  0.0   0.2+    231005 104  0.4+  0.2-    231006 H21  0.0   0.5+
231005 G96  0.0   0.1-    231005 I93  0.7+  0.6-    231006 H21  0.0   0.3+
231005 G96  0.0   0.1-    231005 I93  0.4-  0.4-    231006 H21  0.1-  0.4+
231005 H01  0.0   0.1-    231005 I93  0.1+  0.4+    231006 H21  0.0   0.4+
231005 H01  0.0   0.0     231005 L34  0.4+  0.5+    231006 M45  0.1-  0.1+
231005 H01  0.0   0.1+    231006 C95  0.3+  0.1+    231006 M45  1.1-  0.7+
231005 H01  0.1-  0.1-    231006 C95  0.1+  0.2+    231006 M45  0.6-  0.2+
231005 958  0.2+  0.6-    231006 M49  0.2+  0.7+    231006 B72  0.5+  0.1-
231005 L34  0.8-  0.6-    231006 M49  0.2-  0.6+    231006 B72  0.1+  0.1-
231005 958  0.4+  0.0     231006 C95  0.2-  0.5+    231006 B72  0.0   1.4-
231005 958  1.2-  1.1+    231006 Z84  0.2+  0.2-
231005 104  0.3-  0.7+    231006 Z84  0.0   0.2-
Ephemeris:
2023 TS1                 a,e,i = 1.74, 0.40, 16                  q = 1.0497
Date    TT    R. A. (2000) Decl.     Delta      r    Elong.  Phase     V
2023 09 07    01 25 45.6 -30 03 46   0.2497  1.2062   138.4    33.7    22.9
...
2023 09 22    01 31 30.3 -19 44 43   0.1557  1.1408   149.5    26.6    21.5
...
2023 09 30    01 29 17.8 -06 29 27   0.1155  1.1116   161.2    16.9    20.5
...
2023 10 06    01 24 15.5 +10 16 34   0.09458 1.0929   168.8    10.3    19.8
2023 10 07    01 23 02.6 +13 42 51   0.09224 1.0901   167.9    11.1    19.8
2023 10 08    01 21 42.2 +17 18 28   0.09031 1.0873   166.2    12.7    19.8
...
2023 10 14    01 10 22.4 +40 21 10   0.08774 1.0727   147.5    30.0    20.3
...
2023 10 22    00 41 06.7 +65 29 28   0.1059  1.0586   124.2    51.0    21.2
...
2023 11 06    20 48 05.4 +84 41 52   0.1684  1.0499   105.8    65.3    22.6
M. P. C. Staff               (C) Copyright 2023 MPC           M.P.E.C. 2023-T63
    
    
More information about the Iaude
mailing list